FloripaSat 1
1 44885U 19093G   25193.79920287  .00004709  00000-0  39540-3 0  9999
2 44885  97.8185 281.4722 0012873  94.4726 265.7967 14.98760699301722
RS-44
1 44909U 19096E   25193.46794652  .00000028  00000-0  72645-4 0  9992
2 44909  82.5196 205.4273 0216677 218.4445 140.1049 12.79742005258897
UPMSat 2
1 46276U 20061E   25193.17591612  .00071838  00000-0  52828-3 0  9991
2 46276  97.2415 268.7494 0002115 148.1759 211.9633 15.72872295270584
SALSAT
1 46495U 20068K   25193.86245020  .00005397  00000-0  23160-3 0  9990
2 46495  97.8618 173.4400 0012605  53.2291 307.0099 15.23110458263597
CubeSX-Sirius-HSE
1 47951U 21022V   25157.62701764  .07883385  25648-5  89537-3 0  9993
2 47951  97.4004  72.1904 0010275 223.9924 136.0557 16.36879307233400
CubeSX-HSE
1 47952U 21022W   25157.69972699  .06655353  25454-5  93288-3 0  9992
2 47952  97.3980  72.5414 0010307 219.3637 140.6911 16.34906352233436
GRBAlpha
1 47959U 21022AD  25160.45426279  .07940347  25506-5  90589-3 0  9995
2 47959  97.3899  75.6235 0011032 227.2558 132.7812 16.36806138232695
TUBIN
1 48900U 21059X   25193.84828188  .00037842  00000-0  41782-3 0  9994
2 48900  97.6760   5.8459 0004127 115.2059 244.9627 15.62974958225230
LEDSAT
1 49069U 21073D   25193.79437847  .00069056  00000-0  70432-3 0  9995
2 49069  97.3876 276.8200 0007062 303.7415  56.3170 15.64847504216626
CUTE
1 49263U 21088D   25193.20715475  .00035173  00000-0  67064-3 0  9999
2 49263  97.4501 270.4312 0009251 121.1112 239.1047 15.48046825209478
TeikyoSat 4
1 49396U 21102B   25193.53607274  .00001224  00000-0  83947-4 0  9995
2 49396  97.4083 230.7735 0013166  27.7087 332.4841 15.07752329201514
Z-Sat
1 49399U 21102E   25193.85143973  .00003181  00000-0  17503-3 0  9992
2 49399  97.3777 234.3810 0017554 354.4345   5.6689 15.14637062202011
KOSEN 1
1 49402U 21102H   25193.70778770  .00004439  00000-0  20487-3 0  9992
2 49402  97.3681 237.9097 0014549 328.3592  31.6767 15.20644936202326
HO-113
1 50466U 21131B   25193.88591945  .00000323  00000-0  11451-3 0  9991
2 50466  98.5109 283.0767 0004925  49.7640 310.3979 14.40845061186244
Foresail-1
1 52766U 22057AL  25176.64799660  .13857605  27391-5  25307-3 0  9992
2 52766  97.5832 331.2310 0012137 233.7199 258.4922 16.46795272172486
SNUGLITE 2
1 52899U 22065F   25193.38183022  .00000695  00000-0  14389-3 0  9993
2 52899  98.1728 335.0436 0007876  20.5506 339.6011 14.63273150161283
UmKA 1 (RS40S)
1 57172U 23091G   25193.88412205  .00004260  00000-0  22713-3 0  9997
2 57172  97.5559 249.0957 0013511 213.4678 146.5702 15.15644109112524
CubeBel-2 (EU11S)
1 57175U 23091K   25193.89053305  .00006965  00000-0  32791-3 0  9994
2 57175  97.5558 250.4555 0011151 219.2317 140.8110 15.19807071112611
VERONIKA
1 58261U 23174F   25193.80593953  .00232875  00000-0  11690-2 0  9997
2 58261  97.4092 282.2249 0006623 243.0627 116.9965 15.81077409 93916
ENSO
1 58470U 23185J   25193.85405022  .00049987  00000-0  63986-3 0  9991
2 58470  97.3714 270.1161 0004634 312.2821  47.8042 15.59045450 90216
EIRSAT-1
1 58472U 23185L   25193.83254817  .00142226  00000-0  95963-3 0  9995
2 58472  97.3655 272.6615 0003853 275.8366  84.2460 15.74669277 90386
SONATE-2
1 59112U 24043Q   25193.64943451  .00012370  00000-0  34745-3 0  9996
2 59112  97.5177 325.5183 0010455   3.2429 356.8880 15.36630529 75413
MO-122
1 60209U 24125G   25193.52560974  .00013492  00000-0  37194-3 0  9995
2 60209  97.2757  44.7909 0018710  24.5913 335.6220 15.37059283 57017
GRBBeta
1 60237U 24128C   25193.47350993  .00002698  00000-0  20974-3 0  9995
2 60237  61.9928 324.8469 0054220  64.6594 296.0098 15.02865884 55144
Curium One
1 60242U 24128H   25193.52042107  .00004644  00000-0  32564-3 0  9993
2 60242  61.9829 322.4795 0054156  60.9329 299.7172 15.05507902 55194
ROBUSTA-3A
1 60243U 24128J   25193.46697911  .00004903  00000-0  34769-3 0  9993
2 60243  61.9901 323.6059 0053184  58.6185 302.0094 15.05032808 55173
CatSat
1 60246U 24125J   25193.50927701  .00006971  00000-0  23001-3 0  9995
2 60246  97.2558  43.6084 0041145 339.0465  20.9088 15.30903430 55023
HYPERVIEW-1G (RS66S)
1 61772U 24199AP  25193.89968655  .00017152  00000-0  48028-3 0  9995
2 61772  97.3486  62.7064 0015075  76.7480 283.5445 15.36582925 82071
AO-123
1 61781U 24199AY  25193.90115728  .00005623  00000-0  20322-3 0  9999
2 61781  97.3502  61.2249 0017500  81.2446 279.0776 15.28715429 81970
ZIMSAT 2
1 61783U 24199BA  25193.89526582  .00032024  00000-0  73207-3 0  9998
2 61783  97.3459  63.5877 0014607  74.4268 285.8591 15.42662691 85282
HADES-R (SO-124)
1 62690U 25009CK  25193.17781561  .00030501  00000-0  10181-2 0  9997
2 62690  97.4087 273.8978 0001357   0.8516 359.2727 15.30995496 27139
HYDRA-T
1 62692U 25009CM  25193.15737061  .00026165  00000-0  86619-3 0  9994
2 62692  97.4087 273.9249 0000991 352.0594   8.0631 15.31294751 27134
JINJUSat 1B
1 63210U 25052A   25193.49085000  .00007765  00000-0  35096-3 0  9993
2 63210  97.4379  87.2043 0003856 178.6876 181.4371 15.21212173 18258
NUSHSAT 1
1 63211U 25052B   25193.21710604  .00008852  00000-0  39629-3 0  9993
2 63211  97.4369  86.9434 0003617 184.9364 175.1837 15.21497754 18218
TEVEL2-4
1 63213U 25052D   25193.43467781  .00008845  00000-0  39972-3 0  9997
2 63213  97.4288  86.9839 0002287 195.0939 165.0229 15.21180083 18242
TEVEL2-5
1 63214U 25052E   25193.43571687  .00008817  00000-0  39873-3 0  9998
2 63214  97.4287  86.9830 0002287 195.2431 164.8736 15.21156544 18247
TEVEL2-6
1 63215U 25052F   25193.43872505  .00008934  00000-0  40446-3 0  9990
2 63215  97.4289  86.9806 0002290 197.4513 162.6644 15.21115703 18248
TEVEL2-1
1 63217U 25052H   25193.19138812  .00008982  00000-0  40933-3 0  9995
2 63217  97.4264  86.6619 0001990 222.0735 138.0348 15.20885790 18202
TEVEL2-2
1 63218U 25052J   25193.19166417  .00009044  00000-0  41211-3 0  9998
2 63218  97.4265  86.6627 0001997 223.7868 136.3209 15.20888361 18209
TEVEL2-3
1 63219U 25052K   25193.25770650  .00009108  00000-0  41507-3 0  9995
2 63219  97.4264  86.7269 0002001 223.6504 136.4574 15.20882850 18219
TEVEL2-8
1 63237U 25052AD  25193.21750328  .00007701  00000-0  36406-3 0  9990
2 63237  97.4329  86.5746 0006052 257.5231 102.5326 15.19656930 18194
TEVEL2-9
1 63238U 25052AE  25193.22119651  .00007540  00000-0  35721-3 0  9990
2 63238  97.4332  86.5725 0006154 257.7237 102.3309 15.19590013 18195
TEVEL2-7
1 63239U 25052AF  25193.15802227  .00007850  00000-0  37209-3 0  9998
2 63239  97.4330  86.5028 0006165 258.5362 101.5181 15.19556903 18188
HYDRA-W
1 63490U 25052BL  25193.24514247  .00021010  00000-0  85264-3 0  9997
2 63490  97.4276  87.0686 0009257 252.8165 107.2059 15.24589886 18230
HADES-ICM (SO-125)
1 63492U 25052BN  25193.20442841  .00019664  00000-0  81053-3 0  9999
2 63492  97.4286  86.9782 0009555 258.7500 101.2663 15.24077351 18220
